| time (UTC) | temp C | wind direction | speed KPH | gust KPH | rain 1hr cm | rain 24hr cm | rain mn cm | humidity % | barometer mb |
| 20260906072528 | 22 | 320 | 0.0 | 1.6 | 0.00 | 0.00 | 0.00 | 97 | 1014.7 |
| 20260906072027 | 22 | 320 | 0.0 | 1.6 | 0.00 | 0.00 | 0.00 | 97 | 1014.8 |
| 20260906071727 | 22 | 320 | 0.0 | 1.6 | 0.00 | 0.00 | 0.00 | 97 | 1014.7 |
| 20260906071031 | 22 | 320 | 0.0 | 1.6 | 0.00 | 0.00 | 0.00 | 97 | 1014.8 |
| 20260906070531 | 22 | 320 | 0.0 | 1.6 | 0.00 | 0.00 | 0.00 | 97 | 1014.7 |
| 20260906070316 | 22 | 320 | 0.0 | 3.2 | 0.00 | 0.00 | 0.00 | 97 | 1014.8 |
| 20260906065525 | 22 | 320 | 0.0 | 3.2 | 0.00 | 0.00 | 0.00 | 97 | 1014.8 |
| 20260906065029 | 22 | 321 | 0.0 | 3.2 | 0.00 | 0.00 | 0.00 | 97 | 1014.7 |
| 20260906064728 | 22 | 321 | 0.0 | 3.2 | 0.00 | 0.00 | 0.00 | 96 | 1014.6 |
| 20260906064031 | 22 | 325 | 1.6 | 3.2 | 0.00 | 0.00 | 0.00 | 96 | 1014.7 |
| 20260906063542 | 23 | 325 | 0.0 | 3.2 | 0.00 | 0.00 | 0.00 | 96 | 1014.9 |
| 20260906063218 | 23 | 325 | 0.0 | 0.0 | 0.00 | 0.00 | 0.00 | 95 | 1015.1 |
| 20260906062534 | 23 | 325 | 0.0 | 3.2 | 0.00 | 0.00 | 0.00 | 95 | 1015.0 |
| 20260906062028 | 23 | 325 | 0.0 | 3.2 | 0.00 | 0.00 | 0.00 | 95 | 1015.3 |
| 20260906061632 | 23 | 325 | 0.0 | 0.0 | 0.00 | 0.00 | 0.00 | 95 | 1015.5 |
| 20260906061039 | 23 | 325 | 0.0 | 0.0 | 0.00 | 0.00 | 0.00 | 96 | 1015.5 |
| 20260906060524 | 23 | 325 | 0.0 | 3.2 | 0.00 | 0.00 | 0.00 | 96 | 1015.7 |
| 20260906060215 | 23 | 325 | 0.0 | 3.2 | 0.00 | 0.00 | 0.00 | 95 | 1015.7 |
| 20260906055528 | 23 | 325 | 0.0 | 3.2 | 0.00 | 0.00 | 0.00 | 95 | 1015.6 |
| 20260906055024 | 23 | 325 | 0.0 | 3.2 | 0.00 | 0.00 | 0.00 | 95 | 1015.5 |
| 20260906054719 | 23 | 325 | 0.0 | 4.8 | 0.00 | 0.00 | 0.00 | 95 | 1015.7 |
| 20260906054035 | 23 | 323 | 1.6 | 4.8 | 0.00 | 0.00 | 0.00 | 95 | 1016.0 |
| 20260906053532 | 23 | 360 | 1.6 | 4.8 | 0.00 | 0.00 | 0.00 | 95 | 1015.8 |
| 20260906053227 | 23 | 9 | 1.6 | 4.8 | 0.00 | 0.00 | 0.00 | 95 | 1016.0 |
| 20260906052538 | 23 | 314 | 0.0 | 3.2 | 0.00 | 0.00 | 0.00 | 95 | 1015.9 |
| 20260906052032 | 23 | 315 | 0.0 | 3.2 | 0.00 | 0.00 | 0.00 | 95 | 1015.9 |
| 20260906051721 | 23 | 315 | 0.0 | 1.6 | 0.00 | 0.00 | 0.00 | 94 | 1015.9 |
| 20260906051036 | 23 | 315 | 0.0 | 3.2 | 0.00 | 0.00 | 0.00 | 93 | 1015.9 |
| 20260906050541 | 23 | 315 | 0.0 | 3.2 | 0.00 | 0.00 | 0.00 | 93 | 1016.0 |
| 20260906050244 | 23 | 315 | 0.0 | 3.2 | 0.00 | 0.00 | 0.00 | 94 | 1016.0 |
| 20260906045546 | 23 | 315 | 0.0 | 0.0 | 0.00 | 0.00 | 0.00 | 94 | 1016.0 |
| 20260906045034 | 23 | 315 | 0.0 | 0.0 | 0.00 | 0.00 | 0.00 | 94 | 1016.1 |
| 20260906044718 | 23 | 315 | 0.0 | 0.0 | 0.00 | 0.00 | 0.00 | 93 | 1016.2 |
| 20260906044036 | 23 | 315 | 0.0 | 3.2 | 0.00 | 0.00 | 0.00 | 93 | 1016.1 |
| 20260906043529 | 23 | 315 | 1.6 | 3.2 | 0.00 | 0.00 | 0.00 | 93 | 1016.1 |
| 20260906043202 | 23 | 314 | 0.0 | 3.2 | 0.00 | 0.00 | 0.00 | 93 | 1016.0 |
| 20260906042539 | 23 | 314 | 1.6 | 3.2 | 0.00 | 0.00 | 0.00 | 93 | 1016.0 |
| 20260906042032 | 23 | 315 | 0.0 | 3.2 | 0.00 | 0.00 | 0.00 | 92 | 1015.9 |
| 20260906041717 | 23 | 315 | 0.0 | 3.2 | 0.00 | 0.00 | 0.00 | 92 | 1015.9 |
| 20260906041039 | 23 | 315 | 0.0 | 3.2 | 0.00 | 0.00 | 0.00 | 92 | 1016.0 |
| 20260906040528 | 23 | 315 | 0.0 | 0.0 | 0.00 | 0.00 | 0.00 | 92 | 1016.2 |
| 20260906040142 | 23 | 315 | 0.0 | 3.2 | 0.00 | 0.00 | 0.00 | 92 | 1016.3 |
| 20260906035524 | 23 | 315 | 0.0 | 3.2 | 0.00 | 0.00 | 0.00 | 92 | 1016.2 |
| 20260906035039 | 23 | 313 | 0.0 | 3.2 | 0.00 | 0.00 | 0.00 | 92 | 1016.2 |
| 20260906034645 | 23 | 313 | 0.0 | 3.2 | 0.00 | 0.00 | 0.00 | 92 | 1016.2 |
| 20260906034023 | 23 | 313 | 0.0 | 3.2 | 0.00 | 0.00 | 0.00 | 92 | 1016.2 |
| 20260906033532 | 23 | 313 | 0.0 | 0.0 | 0.00 | 0.00 | 0.00 | 93 | 1016.1 |
| 20260906033217 | 23 | 313 | 0.0 | 3.2 | 0.00 | 0.00 | 0.00 | 92 | 1016.1 |
| 20260906032526 | 24 | 313 | 0.0 | 3.2 | 0.00 | 0.00 | 0.00 | 92 | 1016.1 |
| 20260906032034 | 24 | 313 | 0.0 | 3.2 | 0.00 | 0.00 | 0.00 | 92 | 1015.9 |
| 20260906031704 | 24 | 313 | 1.6 | 3.2 | 0.00 | 0.00 | 0.00 | 92 | 1016.3 |
| 20260906031023 | 24 | 313 | 0.0 | 6.4 | 0.00 | 0.00 | 0.00 | 92 | 1016.3 |
| 20260906030538 | 24 | 312 | 1.6 | 6.4 | 0.00 | 0.00 | 0.00 | 93 | 1016.4 |
| 20260906030222 | 24 | 311 | 3.2 | 4.8 | 0.00 | 0.00 | 0.00 | 93 | 1016.0 |
| 20260906025526 | 24 | 313 | 1.6 | 6.4 | 0.00 | 0.00 | 0.00 | 93 | 1016.0 |
| 20260906025029 | 24 | 300 | 3.2 | 6.4 | 0.00 | 0.00 | 0.00 | 92 | 1015.9 |
| 20260906024703 | 24 | 185 | 0.0 | 3.2 | 0.00 | 0.00 | 0.00 | 91 | 1016.0 |
| 20260906024029 | 24 | 185 | 0.0 | 3.2 | 0.00 | 0.00 | 0.00 | 91 | 1016.0 |
| 20260906023533 | 24 | 185 | 0.0 | 1.6 | 0.00 | 0.00 | 0.00 | 90 | 1016.0 |
| 20260906023158 | 24 | 185 | 0.0 | 1.6 | 0.00 | 0.00 | 0.00 | 90 | 1015.8 |
| 20260906022533 | 24 | 185 | 0.0 | 1.6 | 0.00 | 0.00 | 0.00 | 90 | 1015.7 |
| 20260906022028 | 25 | 185 | 0.0 | 1.6 | 0.00 | 0.00 | 0.00 | 89 | 1015.8 |
| 20260906021632 | 25 | 185 | 0.0 | 3.2 | 0.00 | 0.00 | 0.00 | 89 | 1016.0 |
| 20260906021020 | 25 | 185 | 0.0 | 3.2 | 0.00 | 0.00 | 0.00 | 89 | 1016.0 |
| 20260906020855 | 25 | 185 | 0.0 | 3.2 | 0.00 | 0.00 | 0.00 | 89 | 1015.8 |
| 20260906020210 | 25 | 185 | 0.0 | 1.6 | 0.00 | 0.00 | 0.00 | 89 | 1015.9 |
| 20260906015535 | 25 | 185 | 0.0 | 0.0 | 0.00 | 0.00 | 0.00 | 88 | 1016.0 |
| 20260906015026 | 25 | 185 | 0.0 | 1.6 | 0.00 | 0.00 | 0.00 | 88 | 1016.0 |
| 20260906014715 | 25 | 185 | 0.0 | 1.6 | 0.00 | 0.00 | 0.00 | 88 | 1016.1 |
| 20260906014022 | 25 | 185 | 0.0 | 1.6 | 0.00 | 0.00 | 0.00 | 89 | 1016.0 |
| 20260906013541 | 25 | 185 | 0.0 | 3.2 | 0.00 | 0.00 | 0.00 | 89 | 1016.0 |
| 20260906013216 | 25 | 185 | 0.0 | 3.2 | 0.00 | 0.00 | 0.00 | 89 | 1015.9 |
| 20260906012523 | 25 | 185 | 1.6 | 3.2 | 0.00 | 0.00 | 0.00 | 89 | 1016.0 |
| 20260906012031 | 25 | 115 | 0.0 | 1.6 | 0.00 | 0.00 | 0.00 | 87 | 1015.9 |
| 20260906011717 | 25 | 113 | 0.0 | 1.6 | 0.00 | 0.00 | 0.00 | 88 | 1015.5 |
| 20260906011022 | 25 | 111 | 0.0 | 1.6 | 0.00 | 0.00 | 0.00 | 86 | 1015.4 |
| 20260906010517 | 25 | 111 | 0.0 | 1.6 | 0.00 | 0.00 | 0.00 | 85 | 1015.4 |
| 20260906010148 | 25 | 112 | 0.0 | 0.0 | 0.00 | 0.00 | 0.00 | 84 | 1015.5 |
| 20260906005525 | 25 | 111 | 0.0 | 0.0 | 0.00 | 0.00 | 0.00 | 84 | 1015.2 |
| 20260906005042 | 25 | 111 | 0.0 | 3.2 | 0.00 | 0.00 | 0.00 | 84 | 1015.5 |
| 20260906004651 | 25 | 111 | 0.0 | 3.2 | 0.00 | 0.00 | 0.00 | 84 | 1015.2 |
| 20260906004029 | 25 | 111 | 0.0 | 3.2 | 0.00 | 0.00 | 0.00 | 84 | 1015.3 |
| 20260906003524 | 25 | 111 | 0.0 | 3.2 | 0.00 | 0.00 | 0.00 | 84 | 1015.1 |
| 20260906003204 | 25 | 111 | 0.0 | 3.2 | 0.00 | 0.00 | 0.00 | 84 | 1015.3 |
| 20260906002542 | 25 | 112 | 1.6 | 3.2 | 0.00 | 0.00 | 0.00 | 84 | 1015.3 |
| 20260906002026 | 26 | 111 | 1.6 | 3.2 | 0.00 | 0.00 | 0.00 | 83 | 1015.4 |
| 20260906001717 | 26 | 112 | 0.0 | 3.2 | 0.00 | 0.00 | 0.00 | 82 | 1015.0 |
| 20260906001044 | 26 | 111 | 0.0 | 3.2 | 0.00 | 0.00 | 0.00 | 81 | 1014.9 |
| 20260906000542 | 26 | 112 | 0.0 | 3.2 | 0.00 | 0.00 | 0.00 | 80 | 1014.8 |
| 20260906000219 | 27 | 112 | 0.0 | 3.2 | 0.00 | 0.00 | 0.00 | 80 | 1014.7 |
| 20260905235538 | 27 | 112 | 0.0 | 3.2 | 0.00 | 0.00 | 0.00 | 79 | 1014.9 |
| 20260905235043 | 27 | 112 | 0.0 | 3.2 | 0.00 | 0.00 | 0.00 | 79 | 1014.8 |
| 20260905234717 | 27 | 112 | 0.0 | 3.2 | 0.00 | 0.00 | 0.00 | 78 | 1014.5 |
| 20260905234024 | 27 | 111 | 0.0 | 3.2 | 0.00 | 0.00 | 0.00 | 77 | 1014.4 |
| 20260905233535 | 27 | 121 | 0.0 | 3.2 | 0.00 | 0.00 | 0.00 | 77 | 1014.5 |
| 20260905233159 | 27 | 123 | 0.0 | 3.2 | 0.00 | 0.00 | 0.00 | 76 | 1014.8 |
| 20260905232527 | 27 | 336 | 0.0 | 3.2 | 0.00 | 0.00 | 0.00 | 75 | 1014.9 |
| 20260905232027 | 28 | 336 | 0.0 | 3.2 | 0.00 | 0.00 | 0.00 | 75 | 1014.8 |
| 20260905231721 | 28 | 336 | 0.0 | 3.2 | 0.00 | 0.00 | 0.00 | 75 | 1014.8 |
| 20260905231033 | 28 | 334 | 0.0 | 3.2 | 0.00 | 0.00 | 0.00 | 75 | 1014.8 |
| 20260905230540 | 28 | 334 | 0.0 | 3.2 | 0.00 | 0.00 | 0.00 | 75 | 1014.7 |
| 20260905230132 | 28 | 26 | 0.0 | 3.2 | 0.00 | 0.00 | 0.00 | 75 | 1014.6 |
| 20260905225530 | 28 | 135 | 0.0 | 1.6 | 0.00 | 0.00 | 0.00 | 76 | 1014.7 |
| 20260905225033 | 28 | 5 | 0.0 | 1.6 | 0.00 | 0.00 | 0.00 | 75 | 1014.7 |
| 20260905224719 | 28 | 70 | 0.0 | 3.2 | 0.00 | 0.00 | 0.00 | 74 | 1014.9 |
| 20260905224047 | 28 | 79 | 0.0 | 3.2 | 0.00 | 0.00 | 0.00 | 75 | 1014.9 |
| 20260905223526 | 28 | 79 | 0.0 | 3.2 | 0.00 | 0.00 | 0.00 | 75 | 1014.8 |
| 20260905223218 | 28 | 79 | 0.0 | 3.2 | 0.00 | 0.00 | 0.00 | 75 | 1014.8 |
| 20260905222547 | 27 | 314 | 0.0 | 3.2 | 0.00 | 0.00 | 0.00 | 75 | 1015.0 |
| 20260905222037 | 27 | 314 | 0.0 | 3.2 | 0.00 | 0.00 | 0.00 | 76 | 1014.7 |
| 20260905221716 | 27 | 314 | 0.0 | 3.2 | 0.00 | 0.00 | 0.00 | 77 | 1014.7 |
| 20260905221033 | 27 | 314 | 1.6 | 3.2 | 0.00 | 0.00 | 0.00 | 76 | 1014.8 |
| 20260905220542 | 27 | 313 | 0.0 | 3.2 | 0.00 | 0.00 | 0.00 | 77 | 1014.6 |
| 20260905220230 | 27 | 311 | 0.0 | 6.4 | 0.00 | 0.00 | 0.00 | 76 | 1014.6 |
| 20260905215547 | 27 | 313 | 0.0 | 6.4 | 0.00 | 0.00 | 0.00 | 76 | 1014.7 |
| 20260905215029 | 27 | 310 | 1.6 | 6.4 | 0.00 | 0.00 | 0.00 | 75 | 1015.0 |
| 20260905214718 | 27 | 342 | 1.6 | 6.4 | 0.00 | 0.00 | 0.00 | 75 | 1014.8 |
| 20260905214043 | 27 | 348 | 1.6 | 6.4 | 0.00 | 0.00 | 0.00 | 73 | 1014.7 |
| 20260905213539 | 27 | 80 | 1.6 | 6.4 | 0.00 | 0.00 | 0.00 | 75 | 1015.1 |
| 20260905213229 | 27 | 84 | 0.0 | 6.4 | 0.00 | 0.00 | 0.00 | 73 | 1015.2 |
| 20260905212531 | 27 | 84 | 1.6 | 6.4 | 0.00 | 0.00 | 0.00 | 73 | 1015.2 |
| 20260905212046 | 27 | 27 | 0.0 | 4.8 | 0.00 | 0.00 | 0.00 | 75 | 1015.4 |
| 20260905211718 | 27 | 82 | 1.6 | 4.8 | 0.00 | 0.00 | 0.00 | 76 | 1015.5 |
| 20260905211024 | 27 | 82 | 0.0 | 11.3 | 0.00 | 0.00 | 0.00 | 78 | 1015.6 |
| 20260905210532 | 26 | 84 | 3.2 | 11.3 | 0.00 | 0.00 | 0.00 | 78 | 1015.3 |
| 20260905210235 | 26 | 109 | 4.8 | 9.7 | 0.00 | 0.00 | 0.00 | 79 | 1015.1 |
| 20260905205539 | 27 | 91 | 3.2 | 8.0 | 0.00 | 0.00 | 0.00 | 79 | 1015.2 |
| 20260905205046 | 27 | 78 | 0.0 | 4.8 | 0.00 | 0.00 | 0.00 | 79 | 1015.1 |
| 20260905204715 | 27 | 78 | 1.6 | 4.8 | 0.00 | 0.00 | 0.00 | 76 | 1015.1 |
| 20260905204042 | 27 | 63 | 1.6 | 4.8 | 0.00 | 0.00 | 0.00 | 75 | 1015.4 |
| 20260905203526 | 27 | 5 | 0.0 | 8.0 | 0.00 | 0.00 | 0.00 | 75 | 1015.5 |
| 20260905203218 | 27 | 5 | 0.0 | 8.0 | 0.00 | 0.00 | 0.00 | 76 | 1015.4 |
| 20260905202528 | 27 | 304 | 3.2 | 8.0 | 0.00 | 0.00 | 0.00 | 74 | 1015.8 |
| 20260905202018 | 27 | 302 | 1.6 | 8.0 | 0.00 | 0.00 | 0.00 | 73 | 1015.7 |
| 20260905201715 | 27 | 13 | 3.2 | 12.9 | 0.00 | 0.00 | 0.00 | 72 | 1015.7 |
| 20260905201043 | 27 | 92 | 4.8 | 12.9 | 0.00 | 0.00 | 0.00 | 71 | 1015.1 |
| 20260905200525 | 27 | 92 | 6.4 | 16.1 | 0.00 | 0.00 | 0.00 | 70 | 1015.4 |
| 20260905200222 | 27 | 88 | 8.0 | 16.1 | 0.00 | 0.00 | 0.00 | 68 | 1015.8 |
| 20260905195520 | 28 | 42 | 6.4 | 17.7 | 0.00 | 0.00 | 0.00 | 68 | 1015.8 |
| 20260905195027 | 28 | 94 | 8.0 | 25.7 | 0.00 | 0.00 | 0.00 | 69 | 1016.1 |
| 20260905194658 | 28 | 123 | 9.7 | 25.7 | 0.00 | 0.00 | 0.00 | 69 | 1015.7 |
| 20260905194026 | 28 | 115 | 11.3 | 29.0 | 0.00 | 0.00 | 0.00 | 70 | 1015.6 |
| 20260905193539 | 28 | 73 | 9.7 | 29.0 | 0.00 | 0.00 | 0.00 | 70 | 1015.7 |
| 20260905193142 | 29 | 80 | 14.5 | 29.0 | 0.00 | 0.00 | 0.00 | 69 | 1015.6 |
| 20260905192528 | 30 | 69 | 11.3 | 27.4 | 0.00 | 0.00 | 0.00 | 68 | 1015.7 |
| 20260905192033 | 30 | 64 | 14.5 | 38.6 | 0.00 | 0.00 | 0.00 | 66 | 1015.7 |
| 20260905191648 | 31 | 92 | 17.7 | 38.6 | 0.00 | 0.00 | 0.00 | 63 | 1015.8 |
| 20260905191034 | 32 | 93 | 19.3 | 38.6 | 0.00 | 0.00 | 0.00 | 54 | 1015.4 |
| 20260905190532 | 35 | 80 | 11.3 | 29.0 | 0.00 | 0.00 | 0.00 | 50 | 1015.6 |
| 20260905190225 | 36 | 92 | 3.2 | 6.4 | 0.00 | 0.00 | 0.00 | 51 | 1015.2 |
| 20260905185518 | 36 | 117 | 1.6 | 6.4 | 0.00 | 0.00 | 0.00 | 50 | 1014.8 |
| 20260905185020 | 36 | 281 | 0.0 | 6.4 | 0.00 | 0.00 | 0.00 | 49 | 1014.7 |
| 20260905184625 | 37 | 99 | 3.2 | 6.4 | 0.00 | 0.00 | 0.00 | 49 | 1014.7 |
| 20260905184046 | 37 | 71 | 3.2 | 6.4 | 0.00 | 0.00 | 0.00 | 49 | 1014.9 |
| 20260905183529 | 37 | 114 | 1.6 | 6.4 | 0.00 | 0.00 | 0.00 | 49 | 1014.8 |
| 20260905183206 | 36 | 71 | 3.2 | 6.4 | 0.00 | 0.00 | 0.00 | 50 | 1014.9 |
| 20260905182532 | 36 | 157 | 3.2 | 8.0 | 0.00 | 0.00 | 0.00 | 49 | 1014.7 |
| 20260905182033 | 36 | 180 | 3.2 | 9.7 | 0.00 | 0.00 | 0.00 | 49 | 1015.0 |
| 20260905181720 | 36 | 117 | 4.8 | 9.7 | 0.00 | 0.00 | 0.00 | 48 | 1015.1 |
| 20260905181026 | 36 | 175 | 4.8 | 12.9 | 0.00 | 0.00 | 0.00 | 50 | 1015.3 |
| 20260905180524 | 36 | 204 | 4.8 | 12.9 | 0.00 | 0.00 | 0.00 | 48 | 1015.3 |
| 20260905180205 | 36 | 209 | 4.8 | 12.9 | 0.00 | 0.00 | 0.00 | 48 | 1015.5 |
| 20260905175548 | 36 | 217 | 4.8 | 9.7 | 0.00 | 0.00 | 0.00 | 54 | 1015.5 |
| 20260905175040 | 36 | 206 | 3.2 | 9.7 | 0.00 | 0.00 | 0.00 | 54 | 1015.6 |
| 20260905174624 | 36 | 211 | 1.6 | 8.0 | 0.00 | 0.00 | 0.00 | 54 | 1015.6 |
| 20260905174027 | 36 | 194 | 1.6 | 12.9 | 0.00 | 0.00 | 0.00 | 54 | 1015.6 |
| 20260905173542 | 36 | 207 | 4.8 | 12.9 | 0.00 | 0.00 | 0.00 | 54 | 1015.9 |
| 20260905173219 | 35 | 66 | 4.8 | 9.7 | 0.00 | 0.00 | 0.00 | 54 | 1015.6 |
| 20260905172604 | 35 | 103 | 3.2 | 11.3 | 0.00 | 0.00 | 0.00 | 56 | 1015.8 |
| 20260905172033 | 35 | 105 | 3.2 | 11.3 | 0.00 | 0.00 | 0.00 | 57 | 1015.8 |
| 20260905171716 | 35 | 94 | 4.8 | 9.7 | 0.00 | 0.00 | 0.00 | 55 | 1015.8 |
| 20260905171018 | 35 | 60 | 3.2 | 8.0 | 0.00 | 0.00 | 0.00 | 55 | 1015.8 |
| 20260905170545 | 35 | 138 | 4.8 | 8.0 | 0.00 | 0.00 | 0.00 | 56 | 1016.0 |
| 20260905170217 | 35 | 188 | 3.2 | 9.7 | 0.00 | 0.00 | 0.00 | 56 | 1016.1 |
| 20260905165533 | 35 | 188 | 3.2 | 9.7 | 0.00 | 0.00 | 0.00 | 57 | 1016.3 |
| 20260905165028 | 34 | 188 | 4.8 | 9.7 | 0.00 | 0.00 | 0.00 | 58 | 1016.4 |
| 20260905164651 | 34 | 178 | 3.2 | 9.7 | 0.00 | 0.00 | 0.00 | 59 | 1016.5 |
| 20260905164020 | 34 | 213 | 3.2 | 8.0 | 0.00 | 0.00 | 0.00 | 59 | 1016.7 |
| 20260905163543 | 34 | 134 | 1.6 | 8.0 | 0.00 | 0.00 | 0.00 | 59 | 1016.9 |
| 20260905163206 | 34 | 279 | 0.0 | 8.0 | 0.00 | 0.00 | 0.00 | 61 | 1016.9 |
| 20260905162528 | 34 | 350 | 3.2 | 9.7 | 0.00 | 0.00 | 0.00 | 64 | 1017.0 |
| 20260905162038 | 33 | 325 | 3.2 | 9.7 | 0.00 | 0.00 | 0.00 | 64 | 1017.1 |
| 20260905161717 | 33 | 304 | 3.2 | 8.0 | 0.00 | 0.00 | 0.00 | 65 | 1017.1 |
| 20260905161035 | 33 | 335 | 4.8 | 9.7 | 0.00 | 0.00 | 0.00 | 65 | 1017.1 |
| 20260905160523 | 33 | 347 | 4.8 | 9.7 | 0.00 | 0.00 | 0.00 | 65 | 1017.1 |
| 20260905160219 | 32 | 304 | 1.6 | 11.3 | 0.00 | 0.00 | 0.00 | 67 | 1017.2 |
| 20260905155519 | 32 | 313 | 3.2 | 11.3 | 0.00 | 0.00 | 0.00 | 67 | 1017.2 |
| 20260905155027 | 32 | 337 | 3.2 | 9.7 | 0.00 | 0.00 | 0.00 | 67 | 1017.2 |
| 20260905154713 | 32 | 310 | 4.8 | 9.7 | 0.00 | 0.00 | 0.00 | 68 | 1017.2 |
| 20260905154029 | 32 | 219 | 3.2 | 8.0 | 0.00 | 0.00 | 0.00 | 68 | 1017.4 |
| 20260905153524 | 32 | 277 | 1.6 | 8.0 | 0.00 | 0.00 | 0.00 | 69 | 1017.3 |
| 20260905153201 | 32 | 298 | 3.2 | 8.0 | 0.00 | 0.00 | 0.00 | 69 | 1017.5 |
| 20260905152532 | 32 | 304 | 1.6 | 8.0 | 0.00 | 0.00 | 0.00 | 70 | 1017.4 |
| 20260905152027 | 31 | 315 | 1.6 | 8.0 | 0.00 | 0.00 | 0.00 | 72 | 1017.4 |
| 20260905151719 | 31 | 329 | 3.2 | 6.4 | 0.00 | 0.00 | 0.00 | 72 | 1017.4 |
| 20260905151033 | 31 | 355 | 3.2 | 8.0 | 0.00 | 0.00 | 0.00 | 74 | 1017.4 |
| 20260905150532 | 31 | 341 | 3.2 | 8.0 | 0.00 | 0.00 | 0.00 | 75 | 1017.4 |
| 20260905150222 | 31 | 296 | 4.8 | 11.3 | 0.00 | 0.00 | 0.00 | 74 | 1017.6 |
| 20260905145544 | 30 | 298 | 4.8 | 11.3 | 0.00 | 0.00 | 0.00 | 75 | 1017.3 |
| 20260905145031 | 30 | 292 | 4.8 | 11.3 | 0.00 | 0.00 | 0.00 | 76 | 1017.4 |
| 20260905144719 | 30 | 292 | 3.2 | 8.0 | 0.00 | 0.00 | 0.00 | 77 | 1017.4 |
| 20260905144039 | 29 | 276 | 3.2 | 8.0 | 0.00 | 0.00 | 0.00 | 79 | 1017.5 |
| 20260905143542 | 29 | 275 | 3.2 | 6.4 | 0.00 | 0.00 | 0.00 | 80 | 1017.6 |
| 20260905143215 | 29 | 304 | 1.6 | 8.0 | 0.00 | 0.00 | 0.00 | 80 | 1017.6 |
| 20260905142535 | 29 | 296 | 3.2 | 6.4 | 0.00 | 0.00 | 0.00 | 81 | 1017.5 |
| 20260905142032 | 28 | 277 | 1.6 | 6.4 | 0.00 | 0.00 | 0.00 | 80 | 1017.6 |
| 20260905141719 | 28 | 297 | 1.6 | 6.4 | 0.00 | 0.00 | 0.00 | 81 | 1017.7 |
| 20260905141020 | 28 | 295 | 1.6 | 6.4 | 0.00 | 0.00 | 0.00 | 81 | 1017.9 |
| 20260905140542 | 28 | 293 | 3.2 | 6.4 | 0.00 | 0.00 | 0.00 | 82 | 1017.7 |
| 20260905140225 | 28 | 332 | 1.6 | 6.4 | 0.00 | 0.00 | 0.00 | 84 | 1017.8 |
| 20260905135546 | 27 | 342 | 3.2 | 6.4 | 0.00 | 0.00 | 0.00 | 86 | 1018.0 |
| 20260905135039 | 27 | 321 | 1.6 | 6.4 | 0.00 | 0.00 | 0.00 | 87 | 1017.9 |
| 20260905134718 | 27 | 345 | 1.6 | 6.4 | 0.00 | 0.00 | 0.00 | 88 | 1018.0 |
| 20260905134024 | 27 | 288 | 1.6 | 6.4 | 0.00 | 0.00 | 0.00 | 88 | 1018.0 |
| 20260905133540 | 27 | 304 | 3.2 | 8.0 | 0.00 | 0.00 | 0.00 | 88 | 1017.9 |
| 20260905133217 | 26 | 311 | 3.2 | 8.0 | 0.00 | 0.00 | 0.00 | 88 | 1017.8 |
| 20260905132525 | 26 | 298 | 3.2 | 6.4 | 0.00 | 0.00 | 0.00 | 89 | 1018.0 |
| 20260905132039 | 26 | 300 | 1.6 | 6.4 | 0.00 | 0.00 | 0.00 | 89 | 1017.9 |
| 20260905131718 | 26 | 263 | 1.6 | 4.8 | 0.00 | 0.00 | 0.00 | 91 | 1017.7 |
| 20260905131039 | 26 | 286 | 1.6 | 4.8 | 0.00 | 0.00 | 0.00 | 91 | 1017.7 |
| 20260905130539 | 26 | 290 | 1.6 | 8.0 | 0.00 | 0.00 | 0.00 | 92 | 1017.7 |
| 20260905130225 | 25 | 292 | 3.2 | 8.0 | 0.00 | 0.00 | 0.00 | 92 | 1017.8 |
| 20260905125521 | 25 | 290 | 1.6 | 6.4 | 0.00 | 0.00 | 0.00 | 93 | 1017.8 |
| 20260905125025 | 25 | 265 | 1.6 | 6.4 | 0.00 | 0.00 | 0.00 | 94 | 1017.7 |
| 20260905124720 | 25 | 292 | 1.6 | 6.4 | 0.00 | 0.00 | 0.00 | 94 | 1017.7 |
| 20260905124039 | 25 | 291 | 3.2 | 6.4 | 0.00 | 0.00 | 0.00 | 94 | 1017.7 |
| 20260905123530 | 25 | 286 | 3.2 | 6.4 | 0.00 | 0.00 | 0.00 | 94 | 1017.8 |
| 20260905123217 | 25 | 254 | 1.6 | 4.8 | 0.00 | 0.00 | 0.00 | 96 | 1017.7 |
| 20260905122525 | 24 | 271 | 0.0 | 3.2 | 0.00 | 0.00 | 0.00 | 96 | 1017.7 |
| 20260905122040 | 24 | 272 | 0.0 | 3.2 | 0.00 | 0.00 | 0.00 | 96 | 1017.7 |
| 20260905121709 | 24 | 272 | 0.0 | 3.2 | 0.00 | 0.00 | 0.00 | 97 | 1017.6 |
| 20260905121040 | 24 | 272 | 0.0 | 3.2 | 0.00 | 0.00 | 0.00 | 98 | 1017.6 |
| 20260905120541 | 23 | 272 | 0.0 | 3.2 | 0.00 | 0.00 | 0.00 | 98 | 1017.6 |
| 20260905120223 | 23 | 272 | 0.0 | 3.2 | 0.00 | 0.00 | 0.00 | 99 | 1017.5 |
| 20260905115533 | 23 | 273 | 0.0 | 3.2 | 0.00 | 0.00 | 0.00 | 99 | 1017.6 |
| 20260905115041 | 23 | 284 | 0.0 | 0.0 | 0.00 | 0.00 | 0.00 | 99 | 1017.4 |
| 20260905114656 | 23 | 284 | 0.0 | 0.0 | 0.00 | 0.00 | 0.00 | 99 | 1017.5 |
| 20260905114042 | 23 | 284 | 0.0 | 0.0 | 0.00 | 0.00 | 0.00 | 99 | 1017.4 |
| 20260905113518 | 23 | 284 | 0.0 | 0.0 | 0.00 | 0.00 | 0.00 | 99 | 1017.2 |
| 20260905113152 | 23 | 284 | 0.0 | 0.0 | 0.00 | 0.00 | 0.00 | 99 | 1017.2 |
| 20260905112523 | 23 | 284 | 0.0 | 0.0 | 0.00 | 0.00 | 0.00 | 99 | 1017.1 |
| 20260905112032 | 23 | 284 | 0.0 | 0.0 | 0.00 | 0.00 | 0.00 | 99 | 1017.0 |
| 20260905111703 | 23 | 284 | 0.0 | 0.0 | 0.00 | 0.00 | 0.00 | 98 | 1017.0 |
| 20260905111023 | 23 | 284 | 0.0 | 0.0 | 0.00 | 0.00 | 0.00 | 98 | 1016.9 |
| 20260905110548 | 23 | 284 | 0.0 | 0.0 | 0.00 | 0.00 | 0.00 | 98 | 1016.9 |
| 20260905110215 | 23 | 284 | 0.0 | 0.0 | 0.00 | 0.00 | 0.00 | 98 | 1017.1 |
| 20260905105539 | 23 | 284 | 0.0 | 0.0 | 0.00 | 0.00 | 0.00 | 98 | 1017.0 |
| 20260905105017 | 23 | 284 | 0.0 | 0.0 | 0.00 | 0.00 | 0.00 | 98 | 1016.9 |
| 20260905104653 | 23 | 284 | 0.0 | 0.0 | 0.00 | 0.00 | 0.00 | 98 | 1016.7 |
| 20260905104038 | 23 | 284 | 0.0 | 1.6 | 0.00 | 0.00 | 0.00 | 98 | 1016.7 |
| 20260905103546 | 23 | 284 | 0.0 | 3.2 | 0.00 | 0.00 | 0.00 | 98 | 1016.6 |
| 20260905103152 | 23 | 284 | 0.0 | 4.8 | 0.00 | 0.00 | 0.00 | 98 | 1016.7 |
| 20260905102542 | 23 | 284 | 0.0 | 4.8 | 0.00 | 0.00 | 0.00 | 98 | 1016.7 |
| 20260905102041 | 23 | 284 | 3.2 | 4.8 | 0.00 | 0.00 | 0.00 | 98 | 1016.7 |
| 20260905101642 | 23 | 248 | 1.6 | 4.8 | 0.00 | 0.00 | 0.00 | 98 | 1016.5 |
| 20260905101037 | 23 | 247 | 1.6 | 4.8 | 0.00 | 0.00 | 0.00 | 98 | 1016.7 |
| 20260905100524 | 23 | 243 | 0.0 | 3.2 | 0.00 | 0.00 | 0.00 | 98 | 1016.6 |
| 20260905100157 | 23 | 242 | 0.0 | 3.2 | 0.00 | 0.00 | 0.00 | 98 | 1016.8 |
| 20260905095539 | 23 | 242 | 0.0 | 0.0 | 0.00 | 0.00 | 0.00 | 97 | 1016.6 |
| 20260905095023 | 23 | 242 | 0.0 | 3.2 | 0.00 | 0.00 | 0.00 | 97 | 1016.5 |
| 20260905094651 | 23 | 242 | 0.0 | 3.2 | 0.00 | 0.00 | 0.00 | 97 | 1016.5 |
| 20260905094035 | 23 | 242 | 0.0 | 3.2 | 0.00 | 0.00 | 0.00 | 98 | 1016.7 |
| 20260905093540 | 23 | 242 | 0.0 | 1.6 | 0.00 | 0.00 | 0.00 | 97 | 1016.5 |
| 20260905093148 | 23 | 242 | 0.0 | 1.6 | 0.00 | 0.00 | 0.00 | 97 | 1016.6 |
| 20260905092541 | 23 | 242 | 0.0 | 1.6 | 0.00 | 0.00 | 0.00 | 97 | 1016.5 |
| 20260905092039 | 23 | 242 | 0.0 | 1.6 | 0.00 | 0.00 | 0.00 | 96 | 1016.6 |
| 20260905091651 | 23 | 242 | 0.0 | 0.0 | 0.00 | 0.00 | 0.00 | 96 | 1016.6 |
| 20260905091038 | 23 | 242 | 0.0 | 0.0 | 0.00 | 0.00 | 0.00 | 96 | 1016.5 |
| 20260905090527 | 23 | 242 | 0.0 | 3.2 | 0.00 | 0.00 | 0.00 | 96 | 1016.6 |
| 20260905090213 | 23 | 242 | 0.0 | 3.2 | 0.00 | 0.00 | 0.00 | 96 | 1016.6 |
| 20260905085518 | 23 | 242 | 0.0 | 3.2 | 0.00 | 0.00 | 0.00 | 96 | 1016.7 |
| 20260905085038 | 23 | 246 | 1.6 | 3.2 | 0.00 | 0.00 | 0.00 | 97 | 1016.7 |
| 20260905084658 | 23 | 245 | 0.0 | 1.6 | 0.00 | 0.00 | 0.00 | 96 | 1016.7 |
| 20260905084039 | 23 | 246 | 0.0 | 0.0 | 0.00 | 0.00 | 0.00 | 95 | 1016.7 |
| 20260905083538 | 24 | 246 | 0.0 | 0.0 | 0.00 | 0.00 | 0.00 | 95 | 1016.6 |
| 20260905083155 | 24 | 246 | 0.0 | 3.2 | 0.00 | 0.00 | 0.00 | 94 | 1016.6 |
| 20260905082530 | 24 | 246 | 0.0 | 3.2 | 0.00 | 0.00 | 0.00 | 95 | 1016.6 |
| 20260905082027 | 24 | 246 | 0.0 | 3.2 | 0.00 | 0.00 | 0.00 | 95 | 1016.8 |
| 20260905081648 | 24 | 246 | 0.0 | 3.2 | 0.00 | 0.00 | 0.00 | 95 | 1016.7 |
| 20260905081042 | 25 | 246 | 0.0 | 3.2 | 0.00 | 0.00 | 0.00 | 95 | 1016.8 |
| 20260905080520 | 24 | 246 | 0.0 | 3.2 | 0.00 | 0.00 | 0.00 | 94 | 1016.8 |
| 20260905080218 | 24 | 246 | 0.0 | 4.8 | 0.00 | 0.00 | 0.00 | 91 | 1016.8 |
| 20260905075524 | 24 | 246 | 1.6 | 4.8 | 0.00 | 0.00 | 0.00 | 92 | 1016.9 |
| 20260905075023 | 24 | 240 | 1.6 | 3.2 | 0.00 | 0.00 | 0.00 | 95 | 1017.0 |
| 20260905074613 | 25 | 140 | 0.0 | 3.2 | 0.00 | 0.00 | 0.00 | 94 | 1017.0 |
| 20260905074029 | 25 | 140 | 1.6 | 3.2 | 0.00 | 0.00 | 0.00 | 94 | 1017.1 |
| 20260905073527 | 25 | 139 | 0.0 | 3.2 | 0.00 | 0.00 | 0.00 | 94 | 1017.1 |
| 20260905073132 | 25 | 124 | 0.0 | 3.2 | 0.00 | 0.00 | 0.00 | 94 | 1017.2 |